FENGYUN 1C DEB, 38499

Orbit data source: Space-Track

FENGYUN 1C DEB, 38499 is space debris in SSO originally from a launch on Mon, 10 May 1999 UTC launched from the Taiyaun Space Center, China (TSC). Fengyun 1C debris stems from the Chinese weather satellite Fengyun-1C, which was intentionally destroyed by a Chinese anti-satellite missile in 2007. This event dramatically increased the amount of space debris, with thousands of trackable fragments posing hazards to satellites and human spaceflight. The Fengyun 1C debris cloud has become a focal point in discussions about space sustainability and the need for international regulations to prevent the creation of new debris.

Loading next visibility...
Identifier
38499, 1999-025ESJ
Orbit
SSO
Country
Flag of CNCN / PRC
Related business
Manufacturer
Unknown
Mission
Spacecraft
Bus & Motor
Unknown
Mass
Unknown
Launch date (UTC)
1999-05-10 (27 years ago)
Launch vehicle
Unknown
Launch site
Taiyaun Space Center, China (TSC)
Object type
Payload
Rocket body
Debris
Shape & HBR
Unknown shape, 0.1 m
Radar Cross Section
Small (<0.1 m²)

Expand to show TLE details & history
Last TLE update: 6 days ago

TLE from 6 days ago
0 FENGYUN 1C DEB
1 38499U 99025ESJ 26248.86323664  .00000801  00000-0  71160-3 0  9995
2 38499  98.4035 118.8457 0224607 140.6301 221.1422 13.76320045792333
Epoch: 2026-09-05T20:43Z
TLE epoch observation values (Epoch: 2026-09-05T20:43:03.645Z)
Latitude
-0.00003°
Longitude
-176.88609°
Altitude
1,105.835 km
Speed
7.237 km/s
True Right ascension
07h 55m 22s
True Declination
0° 00' 00"
Sunlit
Object was in daylight at epoch
Visualization orbit readout
Latitude
Unknown
Longitude
Unknown
Altitude
Unknown
Speed
Unknown
Apparent Right ascension
Unknown
Apparent Declination
Unknown
Sunlit
N/A
Visualization observer readout
Local Sidereal Time
13:32:23
Azimuth
Unknown
Elevation
Unknown
Doppler factor
Unknown
Orbital elements
Apogee altitude
1,139.307 km
Perigee altitude
809.031 km
Semi-major axis
7,352.306 km
Eccentricity
0.02246
Inclination
98.4035°
RAAN
118.8457°
Arg. of periapsis
140.6301°
True anomaly
219.48414°
Mean anomaly
221.1422°
Eccentric anomaly
220.30968°
Mean motion
3.44277 °/min
Orbital period
104.57 mins
BSTAR
0.0007116
Loading maneuver chart data...
Computing Atmospheric mass density...
Loading historical data...
Loading historical data...
Loading historical data...
Loading historical data...
Loading historical data...
Loading historical data...
Loading historical data...

Documentation

Showing up to 5 results
|